Regional Weather Roundup
Issued by NWS

Home | Current Version | Previous Version | Text Only | Print | Product List | Glossary On
Versions: 1 2 3 4 5 6 7 8 9 10 11 12 13 14 15 16 17 18 19 20 21 22 23 24 25 26 27 28 29 30 31 32 33 34 35 36 37 38 39 40 41 42 43 44 45 46 47 48 49 50
000
ASUS44 KJAN 211603
RWRMS

MISSISSIPPI HOURLY WEATHER ROUNDUP
NATIONAL WEATHER SERVICE JACKSON MS
1100 AM CDT THU AUG 21 2014

NOTE: "FAIR: INDICATES FEW OR NO CLOUDS BELOW 12,000 FEET WITH NO
SIGNIFICANT WEATHER AND/OR OBSTRUCTIONS TO VISIBILITY.

MSZ001>002-007>008-010>013-018>021-025>028-034>036-211700-
NORTHWEST MISSISSIPPI

CITY           SKY/WX    TMP DP  RH WIND       PRES   REMARKS
CLARKSDALE     PTSUNNY   86  79  79 SW7       30.13S HX  99
CLEVELAND      PTSUNNY   88  78  72 SW7       30.12S HX 102
GREENWOOD      MOSUNNY   87  77  72 VRB5      30.13S HX  99
GREENVILLE     MOSUNNY   87  76  69 SW7       30.12S HX  97
GRENADA        FAIR      86  73  66 W8        30.14S HX  93
OLIVE BRANCH   MOSUNNY   86  79  79 SW12G17   30.13S HX  99
OXFORD         FAIR      84  73  70 W5        30.16S HX  91
TUNICA         SUNNY     88  73  62 W10       30.12S HX  96
$$

MSZ003>006-009-014>017-022>024-029>033-037>039-211700-
NORTHEAST MISSISSIPPI

CITY           SKY/WX    TMP DP  RH WIND       PRES   REMARKS
BELMONT        FAIR      86  75  71 W8        30.16R HX  94
COLUMBUS AFB   SUNNY     89  73  59 W6        30.14S HX  97
CORINTH        FAIR      88  73  62 VRB6G14   30.13S HX  96
GOLDN TRIANGLE MOSUNNY   90  73  58 SW7       30.15S HX  98
STARKVILLE     FAIR      88  72  58 CALM      30.14S HX  94
TUPELO         SUNNY     89  73  59 W8        30.14R HX  97
$$

MSZ040-058-211700-
CENTRAL MISSISSIPPI

CITY           SKY/WX    TMP DP  RH WIND       PRES   REMARKS
JACKSON INTL   MOSUNNY   88  74  63 VRB5      30.14S HX  96
JACKSON HAWKNS SUNNY     89  73  59 W10       30.15S HX  97
MERIDIAN KEY   SUNNY     90  71  53 W6        30.15S HX  96
MERIDIAN NAS   SUNNY     90  73  57 W6        30.15S HX  98
RAYMOND        FAIR      88  82  84 W7        30.14F HX 108
VICKSBURG      SUNNY     89  75  63 W7        30.13S HX  99
$$

MSZ059>079-211700-
SOUTH MISSISSIPPI

CITY           SKY/WX    TMP DP  RH WIND       PRES   REMARKS
BROOKHAVEN     FAIR      88  73  62 SW7       30.17S HX  96
HATTIESBURG    MOSUNNY   89  73  59 VRB5      30.15F HX  97
MCCOMB         MOSUNNY   87  73  62 S6        30.16R HX  94
NATCHEZ        MOSUNNY   86  79  79 SW6       30.15S HX  99
PINE BELT      SUNNY     88  73  62 S7        30.17S HX  96
$$

MSZ080>082-211700-
COASTAL MISSISSIPPI

CITY           SKY/WX    TMP DP  RH WIND       PRES   REMARKS
BAY ST LOUIS   MOSUNNY  N/A N/A N/A CALM      30.15S
BILOXI         SUNNY     91  73  57 VRB1      30.15S HX  99
PASCAGOULA     MOSUNNY   91  76  61 N5        30.15S HX 103
GULFPORT       SUNNY     92  73  53 CALM      30.14S HX 100
$$


USA.gov is the U.S. government's official web portal to all federal, state and local government web resources and services.